Weather History for KOXV - July, 2012

Change the Weather History Date:

Monday, July 16, 2012

  Actual Average Record
Temperature  
Mean Temperature 84 °F -  
Max Temperature 96 °F 88 °F 98 °F (2006)
Min Temperature 73 °F 65 °F 54 °F (1958)
Cooling Degree Days 20    
Growing Degree Days 34 (Base 50)    
Moisture  
Dew Point 62 °F    
Average Humidity 47    
Maximum Humidity 69    
Minimum Humidity 27    
Precipitation  
Precipitation 0.00 in - - ()
Sea Level Pressure  
Sea Level Pressure 29.93 in    
Wind  
Wind Speed 6 mph (SSW)    
Max Wind Speed 14 mph    
Max Gust Speed 22 mph    
Visibility 10 miles    
Events      
Averages and records for this station are not official NWS values.
T = Trace of Precipitation, MM = Missing Value Source: NWS Daily Summary

Daily Weather History Graph

Daily Weather History Graph

Search for Another Location

Airport or City:

Trip Planner

Search our weather history database for the weather conditions in past years. The results will help you decide how hot, cold, wet, or windy it might be!

Date:

Astronomy

Jul. 16, 2012 Rise Set
Actual Time 5:53 AM CDT 8:43 PM CDT
Civil Twilight 5:20 AM CDT 9:15 PM CDT
Nautical Twilight 4:39 AM CDT 9:56 PM CDT
Astronomical Twilight 3:52 AM CDT 10:43 PM CDT
Moon 3:38 AM CDT (7/16) 6:48 PM CDT (7/16)
Length of Visible Light 15h 54m
Length of Day
14h 49m
Waning Crescent, 6% of the Moon is Illuminated
Jul 16
Waning Crescent
Jul 18
New
Jul 26
First Quarter
Aug 1
Full
Aug 9
Last Quarter

Hourly Weather History & Observations

Time (CDT) Temp. Heat Index Dew Point Humidity Pressure Visibility Wind Dir Wind Speed Gust Speed Precip Events Conditions
12:15 AM 78.8 °F - 60.8 °F 54% 30.00 in 10.0 mi South 4.6 mph - N/A   Clear
12:35 AM 78.8 °F - 60.8 °F 54% 30.00 in 10.0 mi South 3.5 mph - N/A   Clear
12:55 AM 78.8 °F - 60.8 °F 54% 30.00 in 10.0 mi Calm Calm - N/A   Clear
1:15 AM 77.0 °F - 60.8 °F 57% 29.99 in 10.0 mi South 3.5 mph - N/A   Clear
1:35 AM 77.0 °F - 60.8 °F 57% 29.99 in 10.0 mi South 3.5 mph - N/A   Clear
2:15 AM 75.2 °F - 60.8 °F 61% 29.99 in 10.0 mi SSW 4.6 mph - N/A   Clear
2:35 AM 77.0 °F - 60.8 °F 57% 29.98 in 10.0 mi South 5.8 mph - N/A   Clear
2:55 AM 77.0 °F - 60.8 °F 57% 29.98 in 10.0 mi South 5.8 mph - N/A   Clear
3:15 AM 77.0 °F - 60.8 °F 57% 29.98 in 10.0 mi South 5.8 mph - N/A   Clear
3:35 AM 77.0 °F - 60.8 °F 57% 29.98 in 10.0 mi South 3.5 mph - N/A   Clear
3:55 AM 75.2 °F - 60.8 °F 61% 29.97 in 10.0 mi South 5.8 mph - N/A   Clear
4:15 AM 77.0 °F - 60.8 °F 57% 29.97 in 10.0 mi South 5.8 mph - N/A   Clear
4:35 AM 75.2 °F - 60.8 °F 61% 29.97 in 10.0 mi South 3.5 mph - N/A   Clear
4:55 AM 75.2 °F - 60.8 °F 61% 29.97 in 10.0 mi South 3.5 mph - N/A   Clear
5:15 AM 75.2 °F - 60.8 °F 61% 29.97 in 10.0 mi South 3.5 mph - N/A   Clear
5:35 AM 73.4 °F - 60.8 °F 65% 29.97 in 10.0 mi South 3.5 mph - N/A   Clear
5:55 AM 73.4 °F - 60.8 °F 65% 29.97 in 10.0 mi South 4.6 mph - N/A   Clear
6:15 AM 73.4 °F - 60.8 °F 65% 29.97 in 10.0 mi South 4.6 mph - N/A   Clear
6:35 AM 73.4 °F - 62.6 °F 69% 29.97 in 10.0 mi South 4.6 mph - N/A   Clear
6:55 AM 75.2 °F - 62.6 °F 65% 29.98 in 10.0 mi South 5.8 mph - N/A   Clear
7:15 AM 75.2 °F - 62.6 °F 65% 29.98 in 10.0 mi South 4.6 mph - N/A   Clear
7:35 AM 77.0 °F - 62.6 °F 61% 29.98 in 10.0 mi South 5.8 mph - N/A   Clear
7:55 AM 78.8 °F - 64.4 °F 61% 29.98 in 10.0 mi South 6.9 mph - N/A   Clear
8:15 AM 80.6 °F 82.3 °F 64.4 °F 58% 29.98 in 10.0 mi South 9.2 mph - N/A   Clear
8:35 AM 82.4 °F 83.9 °F 64.4 °F 54% 29.98 in 10.0 mi SSW 9.2 mph - N/A   Clear
8:55 AM 84.2 °F 85.6 °F 64.4 °F 51% 29.98 in 10.0 mi SSW 10.4 mph - N/A   Clear
9:15 AM 84.2 °F 85.6 °F 64.4 °F 51% 29.98 in 10.0 mi SSW 9.2 mph - N/A   Clear
9:35 AM 86.0 °F 87.3 °F 64.4 °F 48% 29.98 in 10.0 mi SW 8.1 mph - N/A   Clear
9:55 AM 87.8 °F 89.4 °F 64.4 °F 46% 29.98 in 10.0 mi WSW 8.1 mph - N/A   Clear
10:15 AM 87.8 °F 90.4 °F 66.2 °F 49% 29.98 in 10.0 mi WSW 10.4 mph - N/A   Clear
10:35 AM 89.6 °F 92.2 °F 66.2 °F 46% 29.97 in 10.0 mi WSW 12.7 mph 16.1 mph N/A   Clear
10:55 AM 89.6 °F 92.2 °F 66.2 °F 46% 29.97 in 10.0 mi WSW 8.1 mph - N/A   Clear
11:15 AM 91.4 °F 93.2 °F 64.4 °F 41% 29.97 in 10.0 mi WSW 9.2 mph - N/A   Clear
11:35 AM 91.4 °F 93.2 °F 64.4 °F 41% 29.97 in 10.0 mi SW 11.5 mph 16.1 mph N/A   Clear
11:55 AM 91.4 °F 93.2 °F 64.4 °F 41% 29.96 in 10.0 mi WSW 9.2 mph - N/A   Clear
12:15 PM 93.2 °F 94.9 °F 64.4 °F 38% 29.96 in 10.0 mi WSW 9.2 mph - N/A   Clear
12:35 PM 93.2 °F 94.1 °F 62.6 °F 36% 29.95 in 10.0 mi SW 10.4 mph - N/A   Clear
12:55 PM 93.2 °F 94.1 °F 62.6 °F 36% 29.94 in 10.0 mi SW 10.4 mph 16.1 mph N/A   Scattered Clouds
1:15 PM 95.0 °F 96.0 °F 62.6 °F 34% 29.94 in 10.0 mi SW 10.4 mph - N/A   Scattered Clouds
1:35 PM 96.8 °F 97.1 °F 60.8 °F 30% 29.93 in 10.0 mi SSW 10.4 mph 18.4 mph N/A   Clear
1:55 PM 96.8 °F 97.1 °F 60.8 °F 30% 29.92 in 10.0 mi SW 10.4 mph - N/A   Clear
2:15 PM 96.8 °F 98.0 °F 62.6 °F 32% 29.92 in 10.0 mi SW 12.7 mph 18.4 mph N/A   Scattered Clouds
2:35 PM 96.8 °F 97.1 °F 60.8 °F 30% 29.91 in 10.0 mi South 13.8 mph 18.4 mph N/A   Scattered Clouds
2:55 PM 95.0 °F 95.2 °F 60.8 °F 32% 29.90 in 10.0 mi SW 12.7 mph 18.4 mph N/A   Scattered Clouds
3:15 PM 95.0 °F 95.2 °F 60.8 °F 32% 29.90 in 10.0 mi SSW 13.8 mph 18.4 mph N/A   Scattered Clouds
3:35 PM 96.8 °F 97.1 °F 60.8 °F 30% 29.89 in 10.0 mi WSW 5.8 mph 19.6 mph N/A   Scattered Clouds
3:55 PM 96.8 °F 96.2 °F 59.0 °F 28% 29.89 in 10.0 mi SSW 13.8 mph 21.9 mph N/A   Scattered Clouds
4:15 PM 96.8 °F 96.2 °F 59.0 °F 28% 29.89 in 10.0 mi SSW 11.5 mph 16.1 mph N/A   Scattered Clouds
4:35 PM 96.8 °F 95.8 °F 57.2 °F 27% 29.88 in 10.0 mi WSW 13.8 mph 18.4 mph N/A   Scattered Clouds
4:55 PM 96.8 °F 97.1 °F 60.8 °F 30% 29.87 in 10.0 mi SW 10.4 mph - N/A   Scattered Clouds
5:15 PM 96.8 °F 96.2 °F 59.0 °F 28% 29.87 in 10.0 mi WSW 10.4 mph - N/A   Clear
5:35 PM 96.8 °F 95.8 °F 57.2 °F 27% 29.86 in 10.0 mi SW 12.7 mph - N/A   Clear
5:55 PM 96.8 °F 95.8 °F 57.2 °F 27% 29.85 in 10.0 mi SW 10.4 mph 17.3 mph N/A   Clear
6:15 PM 95.0 °F 93.7 °F 57.2 °F 28% 29.85 in 10.0 mi SW 11.5 mph 17.3 mph N/A   Clear
6:35 PM 95.0 °F 94.4 °F 59.0 °F 30% 29.84 in 10.0 mi SW 11.5 mph - N/A   Clear
6:55 PM 93.2 °F 91.9 °F 57.2 °F 30% 29.84 in 10.0 mi SW 11.5 mph 18.4 mph N/A   Clear
7:15 PM 93.2 °F 93.3 °F 60.8 °F 34% 29.84 in 10.0 mi SW 9.2 mph - N/A   Clear
7:35 PM 93.2 °F 93.3 °F 60.8 °F 34% 29.84 in 10.0 mi SW 5.8 mph - N/A   Clear
7:55 PM 91.4 °F 92.1 °F 62.6 °F 38% 29.84 in 10.0 mi SW 3.5 mph - N/A   Clear
8:15 PM 89.6 °F 91.1 °F 64.4 °F 43% 29.84 in 10.0 mi SSW 3.5 mph - N/A   Clear
8:35 PM 89.6 °F 90.1 °F 62.6 °F 40% 29.84 in 10.0 mi Calm Calm - N/A   Clear
8:55 PM 87.8 °F 88.5 °F 62.6 °F 43% 29.84 in 10.0 mi Calm Calm - N/A   Clear
9:15 PM 86.0 °F 87.3 °F 64.4 °F 48% 29.85 in 10.0 mi Calm Calm - N/A   Clear
9:35 PM 84.2 °F 85.6 °F 64.4 °F 51% 29.85 in 10.0 mi Calm Calm - N/A   Clear
9:55 PM 84.2 °F 85.6 °F 64.4 °F 51% 29.86 in 10.0 mi Calm Calm - N/A   Clear
10:15 PM 82.4 °F 83.9 °F 64.4 °F 54% 29.86 in 10.0 mi Calm Calm - N/A   Clear
10:35 PM 82.4 °F 83.9 °F 64.4 °F 54% 29.86 in 10.0 mi Calm Calm - N/A   Clear
10:55 PM 80.6 °F 82.7 °F 66.2 °F 61% 29.86 in 10.0 mi South 3.5 mph - N/A   Clear
11:15 PM 80.6 °F 82.7 °F 66.2 °F 61% 29.86 in 10.0 mi SSW 4.6 mph - N/A   Clear
11:35 PM 80.6 °F 82.7 °F 66.2 °F 61% 29.86 in 10.0 mi SSW 4.6 mph - N/A   Clear
11:55 PM 78.8 °F - 64.4 °F 61% 29.86 in 10.0 mi SSW 3.5 mph - N/A   Clear